QPF
0.01 0.01 0.01 0.01 0.01 0.01 0.01 0.01 0.01 0.02 0.02 0.02 0.02 0.02 0.02 0.02 0.02 0.03 0.03 0.03 0.03 0.03 0.03 0.03 0.04 0.04 0.04 0.04 0.03 0.02 0.02 0.02 0.02 0.01 0.01 0.01 0.01 0.01 0.01 0.01 0.01 0.01 0.01
0.01 0.01 0.01 0.01 0.01 0.01 0.01 0.01 0.01 0.01 0.02 0.03 0.02 0.02 0.02 0.02 0.03 0.02 0.02 0.02 0.02 0.02 0.03 0.03 0.03 0.03 0.04 0.04 0.04 0.04 0.03 0.03 0.03 0.02 0.02 0.01 0.01 0.01 0.01 0.01 0.01 0.01 0.01
0.01 0.00 0.00 0.00 0.01 0.01 0.01 0.01 0.01 0.01 0.01 0.03 0.04 0.04 0.03 0.03 0.03 0.04 0.03 0.02 0.02 0.01 0.01 0.01 0.02 0.02 0.03 0.03 0.03 0.03 0.03 0.02 0.02 0.03 0.02 0.02 0.01 0.01 0.01 0.01 0.01 0.01 0.01
0.00 0.00 0.00 0.00 0.00 0.01 0.01 0.01 0.02 0.02 0.02 0.02 0.04 0.05 0.05 0.05 0.04 0.04 0.05 0.04 0.02 0.02 0.01 0.01 0.01 0.02 0.02 0.03 0.03 0.03 0.02 0.02 0.02 0.02 0.02 0.02 0.01 0.01 0.01 0.01 0.01 0.01 0.01
0.00 0.00 0.00 0.00 0.00 0.00 0.01 0.01 0.03 0.04 0.03 0.02 0.03 0.04 0.05 0.06 0.06 0.05 0.04 0.04 0.03 0.02 0.02 0.02 0.02 0.02 0.02 0.02 0.02 0.02 0.02 0.02 0.02 0.02 0.02 0.02 0.02 0.02 0.01 0.01 0.02 0.02 0.01
0.00 0.00 0.00 0.01 0.01 0.00 0.00 0.01 0.02 0.02 0.02 0.02 0.03 0.04 0.05 0.06 0.07 0.06 0.05 0.04 0.04 0.03 0.03 0.02 0.02 0.03 0.03 0.03 0.02 0.02 0.02 0.02 0.02 0.02 0.02 0.02 0.02 0.02 0.02 0.02 0.02 0.02 0.02
0.00 0.00 0.00 0.01 0.00 0.00 0.00 0.01 0.01 0.01 0.01 0.02 0.02 0.03 0.03 0.04 0.05 0.05 0.05 0.05 0.05 0.04 0.04 0.03 0.03 0.03 0.03 0.02 0.02 0.02 0.02 0.02 0.02 0.02 0.01 0.01 0.01 0.01 0.02 0.02 0.02 0.02 0.02
0.00 0.00 0.00 0.00 0.00 0.00 0.00 0.00 0.01 0.01 0.01 0.01 0.01 0.02 0.02 0.03 0.04 0.04 0.05 0.04 0.04 0.05 0.04 0.04 0.03 0.03 0.03 0.02 0.02 0.02 0.02 0.01 0.01 0.01 0.01 0.01 0.01 0.01 0.02 0.02 0.02 0.02 0.03
0.01 0.01 0.00 0.00 0.00 0.00 0.00 0.00 0.01 0.01 0.01 0.01 0.01 0.02 0.02 0.03 0.04 0.04 0.05 0.05 0.04 0.04 0.03 0.03 0.02 0.02 0.03 0.03 0.02 0.02 0.01 0.01 0.01 0.02 0.02 0.02 0.02 0.02 0.01 0.02 0.02 0.03 0.03
0.01 0.01 0.01 0.01 0.01 0.01 0.01 0.01 0.01 0.01 0.01 0.01 0.01 0.02 0.02 0.02 0.03 0.04 0.04 0.04 0.04 0.03 0.03 0.03 0.03 0.02 0.03 0.03 0.03 0.02 0.02 0.01 0.01 0.01 0.01 0.01 0.01 0.01 0.02 0.02 0.02 0.03 0.03
0.01 0.01 0.01 0.01 0.01 0.01 0.01 0.01 0.01 0.01 0.01 0.01 0.01 0.01 0.01 0.02 0.03 0.03 0.04 0.04 0.03 0.03 0.03 0.03 0.03 0.03 0.03 0.03 0.03 0.02 0.02 0.02 0.02 0.01 0.01 0.01 0.01 0.01 0.01 0.02 0.02 0.02 0.02
0.01 0.01 0.01 0.01 0.01 0.02 0.02 0.02 0.01 0.01 0.01 0.01 0.01 0.01 0.01 0.01 0.02 0.03 0.03 0.04 0.03 0.03 0.02 0.02 0.03 0.03 0.03 0.03 0.03 0.02 0.02 0.02 0.02 0.02 0.02 0.02 0.02 0.02 0.01 0.01 0.01 0.02 0.02
0.00 0.00 0.01 0.01 0.01 0.01 0.01 0.01 0.01 0.01 0.01 0.01 0.01 0.01 0.01 0.01 0.01 0.02 0.02 0.03 0.03 0.03 0.02 0.02 0.03 0.03 0.03 0.03 0.03 0.02 0.02 0.02 0.02 0.02 0.02 0.02 0.02 0.02 0.02 0.02 0.02 0.02 0.02
0.00 0.00 0.00 0.01 0.01 0.01 0.01 0.01 0.01 0.01 0.01 0.01 0.01 0.01 0.01 0.01 0.01 0.02 0.02 0.02 0.02 0.02 0.02 0.02 0.02 0.02 0.02 0.02 0.02 0.02 0.02 0.02 0.02 0.02 0.02 0.01 0.01 0.01 0.01 0.01 0.02 0.02 0.02
0.00 0.00 0.00 0.00 0.00 0.00 0.01 0.01 0.01 0.01 0.02 0.02 0.01 0.01 0.01 0.01 0.01 0.02 0.02 0.02 0.02 0.02 0.02 0.02 0.02 0.02 0.02 0.02 0.02 0.02 0.03 0.03 0.03 0.02 0.01 0.01 0.01 0.01 0.01 0.01 0.01 0.01 0.02
0.00 0.00 0.00 0.00 0.00 0.00 0.00 0.00 0.01 0.01 0.01 0.01 0.01 0.01 0.01 0.01 0.02 0.02 0.02 0.02 0.02 0.02 0.02 0.02 0.01 0.02 0.02 0.02 0.03 0.03 0.03 0.03 0.02 0.02 0.02 0.02 0.01 0.01 0.01 0.01 0.02 0.02 0.02
0.00 0.00 0.00 0.00 0.00 0.00 0.00 0.00 0.01 0.01 0.01 0.01 0.01 0.01 0.01 0.02 0.02 0.02 0.02 0.02 0.02 0.02 0.02 0.01 0.01 0.02 0.02 0.02 0.02 0.02 0.02 0.02 0.02 0.02 0.02 0.02 0.02 0.02 0.02 0.02 0.02 0.02 0.02
0.00 0.00 0.00 0.00 0.00 0.00 0.01 0.01 0.01 0.01 0.01 0.01 0.01 0.01 0.01 0.01 0.02 0.02 0.01 0.02 0.02 0.01 0.01 0.01 0.01 0.01 0.02 0.02 0.02 0.02 0.02 0.02 0.03 0.02 0.02 0.02 0.02 0.02 0.03 0.03 0.02 0.02 0.02
0.00 0.00 0.00 0.00 0.00 0.01 0.01 0.01 0.01 0.01 0.01 0.01 0.01 0.01 0.01 0.01 0.01 0.01 0.01 0.01 0.01 0.01 0.01 0.01 0.01 0.01 0.01 0.01 0.02 0.02 0.02 0.02 0.02 0.02 0.02 0.02 0.02 0.03 0.03 0.02 0.02 0.02 0.03
0.00 0.00 0.00 0.00 0.00 0.01 0.01 0.01 0.01 0.01 0.01 0.01 0.01 0.01 0.01 0.01 0.01 0.01 0.01 0.01 0.01 0.01 0.01 0.01 0.01 0.01 0.01 0.01 0.02 0.02 0.02 0.02 0.02 0.03 0.02 0.02 0.02 0.03 0.03 0.02 0.02 0.02 0.03
0.00 0.00 0.00 0.00 0.01 0.01 0.01 0.01 0.01 0.01 0.01 0.01 0.01 0.01 0.01 0.01 0.01 0.01 0.01 0.01 0.01 0.01 0.01 0.01 0.01 0.01 0.01 0.01 0.01 0.02 0.02 0.02 0.02 0.02 0.02 0.02 0.02 0.03 0.02 0.03 0.03 0.03 0.03
0.01 0.01 0.01 0.01 0.01 0.01 0.01 0.01 0.01 0.01 0.01 0.01 0.01 0.01 0.01 0.01 0.01 0.01 0.01 0.01 0.01 0.01 0.00 0.00 0.01 0.01 0.01 0.01 0.01 0.02 0.02 0.02 0.02 0.03 0.03 0.03 0.03 0.03 0.03 0.03 0.03 0.03 0.03
0.01 0.01 0.01 0.01 0.01 0.01 0.01 0.01 0.01 0.01 0.01 0.01 0.01 0.01 0.01 0.01 0.01 0.01 0.01 0.00 0.00 0.00 0.00 0.00 0.00 0.01 0.01 0.01 0.01 0.02 0.02 0.02 0.03 0.03 0.04 0.03 0.03 0.03 0.03 0.03 0.03 0.03 0.03
0.02 0.02 0.02 0.02 0.01 0.01 0.01 0.01 0.01 0.01 0.01 0.01 0.01 0.01 0.01 0.01 0.01 0.00 0.00 0.00 0.00 0.00 0.00 0.00 0.00 0.00 0.00 0.01 0.01 0.01 0.01 0.02 0.02 0.03 0.03 0.03 0.03 0.03 0.03 0.03 0.03 0.03 0.03
0.02 0.02 0.02 0.02 0.02 0.01 0.01 0.01 0.01 0.01 0.01 0.01 0.01 0.01 0.01 0.01 0.01 0.01 0.00 0.00 0.00 0.00 0.00 0.00 0.00 0.00 0.00 0.01 0.01 0.01 0.01 0.01 0.02 0.02 0.03 0.03 0.03 0.03 0.03 0.03 0.03 0.03 0.03
0.02 0.02 0.02 0.03 0.02 0.02 0.01 0.01 0.01 0.01 0.01 0.01 0.01 0.01 0.01 0.01 0.00 0.00 0.00 0.00 0.00 0.00 0.00 0.00 0.00 0.00 0.00 0.00 0.01 0.01 0.01 0.01 0.01 0.01 0.02 0.02 0.02 0.02 0.03 0.03 0.03 0.03 0.03
MSLP
1020.76 1020.63 1020.51 1020.38 1020.23 1020.04 1019.83 1019.60 1019.34 1019.09 1018.84 1018.61 1018.42 1018.28 1018.19 1018.15 1018.17 1018.25 1018.40 1018.60 1018.87 1019.18 1019.53 1019.91 1020.30 1020.68 1021.05 1021.39 1021.70 1021.96 1022.19 1022.38 1022.55 1022.70 1022.83 1022.95 1023.06 1023.18 1023.29 1023.41 1023.53 1023.66 1023.80
1021.46 1021.35 1021.22 1021.06 1020.88 1020.65 1020.39 1020.10 1019.78 1019.44 1019.10 1018.76 1018.44 1018.15 1017.90 1017.70 1017.57 1017.50 1017.51 1017.59 1017.75 1017.97 1018.26 1018.59 1018.95 1019.32 1019.70 1020.07 1020.43 1020.76 1021.08 1021.38 1021.66 1021.92 1022.17 1022.40 1022.62 1022.81 1022.98 1023.12 1023.25 1023.36 1023.46
1022.21 1022.11 1021.98 1021.81 1021.59 1021.33 1021.03 1020.69 1020.31 1019.90 1019.47 1019.03 1018.59 1018.16 1017.76 1017.41 1017.11 1016.88 1016.74 1016.69 1016.73 1016.85 1017.05 1017.32 1017.63 1017.98 1018.35 1018.72 1019.11 1019.50 1019.88 1020.27 1020.65 1021.03 1021.39 1021.74 1022.05 1022.33 1022.57 1022.76 1022.90 1023.01 1023.08
1022.96 1022.87 1022.73 1022.54 1022.29 1022.00 1021.66 1021.28 1020.85 1020.39 1019.90 1019.38 1018.84 1018.30 1017.77 1017.27 1016.82 1016.44 1016.15 1015.96 1015.88 1015.89 1016.00 1016.18 1016.43 1016.73 1017.07 1017.44 1017.83 1018.23 1018.66 1019.10 1019.55 1020.01 1020.46 1020.89 1021.30 1021.66 1021.97 1022.21 1022.39 1022.52 1022.58
1023.69 1023.58 1023.42 1023.19 1022.90 1022.57 1022.20 1021.79 1021.34 1020.84 1020.32 1019.75 1019.14 1018.52 1017.89 1017.28 1016.71 1016.20 1015.78 1015.47 1015.26 1015.16 1015.17 1015.27 1015.45 1015.68 1015.97 1016.29 1016.65 1017.04 1017.45 1017.90 1018.37 1018.86 1019.36 1019.86 1020.32 1020.75 1021.12 1021.42 1021.65 1021.80 1021.89
1024.37 1024.23 1024.01 1023.73 1023.40 1023.03 1022.63 1022.20 1021.73 1021.24 1020.70 1020.12 1019.49 1018.83 1018.14 1017.45 1016.79 1016.19 1015.66 1015.23 1014.92 1014.71 1014.62 1014.63 1014.71 1014.87 1015.08 1015.33 1015.62 1015.95 1016.31 1016.72 1017.16 1017.64 1018.14 1018.64 1019.14 1019.60 1020.02 1020.38 1020.66 1020.86 1020.99
1025.02 1024.82 1024.54 1024.19 1023.80 1023.38 1022.95 1022.51 1022.05 1021.57 1021.06 1020.49 1019.88 1019.21 1018.51 1017.78 1017.06 1016.39 1015.77 1015.25 1014.83 1014.53 1014.34 1014.24 1014.23 1014.29 1014.40 1014.55 1014.75 1014.98 1015.26 1015.58 1015.95 1016.37 1016.82 1017.30 1017.79 1018.27 1018.72 1019.11 1019.45 1019.72 1019.91
1025.68 1025.40 1025.04 1024.61 1024.15 1023.68 1023.22 1022.77 1022.33 1021.88 1021.41 1020.89 1020.31 1019.67 1018.97 1018.24 1017.49 1016.76 1016.08 1015.48 1014.97 1014.56 1014.27 1014.06 1013.94 1013.89 1013.89 1013.93 1014.01 1014.13 1014.29 1014.50 1014.77 1015.09 1015.47 1015.90 1016.35 1016.82 1017.28 1017.71 1018.10 1018.43 1018.70
1026.39 1026.03 1025.57 1025.06 1024.53 1024.01 1023.52 1023.06 1022.63 1022.22 1021.79 1021.32 1020.79 1020.18 1019.51 1018.78 1018.02 1017.25 1016.51 1015.83 1015.23 1014.73 1014.32 1014.00 1013.76 1013.59 1013.47 1013.39 1013.34 1013.34 1013.38 1013.47 1013.63 1013.85 1014.14 1014.49 1014.90 1015.34 1015.80 1016.26 1016.69 1017.09 1017.43
1027.19 1026.73 1026.19 1025.60 1025.00 1024.43 1023.90 1023.44 1023.01 1022.61 1022.22 1021.79 1021.29 1020.73 1020.08 1019.35 1018.58 1017.78 1016.98 1016.23 1015.54 1014.93 1014.41 1013.97 1013.61 1013.31 1013.06 1012.86 1012.69 1012.57 1012.49 1012.47 1012.52 1012.64 1012.85 1013.13 1013.49 1013.90 1014.35 1014.82 1015.29 1015.75 1016.16
1028.07 1027.54 1026.93 1026.27 1025.61 1024.99 1024.43 1023.93 1023.50 1023.10 1022.71 1022.30 1021.82 1021.27 1020.63 1019.90 1019.11 1018.28 1017.43 1016.61 1015.83 1015.12 1014.48 1013.93 1013.44 1013.02 1012.65 1012.32 1012.04 1011.81 1011.63 1011.51 1011.46 1011.50 1011.63 1011.85 1012.16 1012.54 1012.98 1013.45 1013.94 1014.44 1014.91
1029.00 1028.43 1027.76 1027.06 1026.36 1025.69 1025.09 1024.56 1024.10 1023.68 1023.27 1022.84 1022.36 1021.80 1021.15 1020.41 1019.59 1018.72 1017.83 1016.94 1016.09 1015.29 1014.55 1013.88 1013.28 1012.74 1012.25 1011.82 1011.43 1011.09 1010.81 1010.60 1010.48 1010.44 1010.51 1010.67 1010.93 1011.27 1011.68 1012.15 1012.65 1013.16 1013.67
1029.94 1029.34 1028.66 1027.94 1027.21 1026.52 1025.88 1025.32 1024.81 1024.34 1023.89 1023.42 1022.91 1022.31 1021.64 1020.88 1020.04 1019.14 1018.21 1017.27 1016.36 1015.49 1014.67 1013.90 1013.20 1012.55 1011.96 1011.41 1010.92 1010.49 1010.12 1009.82 1009.62 1009.51 1009.50 1009.60 1009.80 1010.10 1010.47 1010.91 1011.39 1011.90 1012.43
1030.81 1030.22 1029.55 1028.84 1028.12 1027.42 1026.76 1026.16 1025.60 1025.08 1024.57 1024.04 1023.47 1022.84 1022.12 1021.34 1020.48 1019.57 1018.63 1017.67 1016.73 1015.81 1014.93 1014.10 1013.31 1012.57 1011.88 1011.24 1010.65 1010.11 1009.64 1009.26 1008.96 1008.76 1008.67 1008.69 1008.81 1009.03 1009.33 1009.71 1010.15 1010.63 1011.15
1031.55 1031.00 1030.37 1029.70 1029.01 1028.33 1027.67 1027.04 1026.44 1025.87 1025.29 1024.70 1024.08 1023.40 1022.66 1021.85 1021.00 1020.09 1019.16 1018.22 1017.28 1016.35 1015.45 1014.57 1013.73 1012.92 1012.14 1011.41 1010.71 1010.07 1009.49 1008.99 1008.58 1008.27 1008.06 1007.96 1007.97 1008.08 1008.29 1008.58 1008.94 1009.36 1009.84
1032.11 1031.62 1031.06 1030.46 1029.84 1029.20 1028.56 1027.93 1027.31 1026.69 1026.07 1025.42 1024.75 1024.03 1023.27 1022.47 1021.63 1020.76 1019.87 1018.97 1018.06 1017.16 1016.27 1015.39 1014.52 1013.66 1012.81 1011.99 1011.19 1010.44 1009.73 1009.10 1008.55 1008.08 1007.73 1007.48 1007.34 1007.30 1007.37 1007.54 1007.79 1008.13 1008.54
1032.47 1032.06 1031.61 1031.10 1030.56 1029.99 1029.40 1028.80 1028.17 1027.53 1026.87 1026.19 1025.48 1024.74 1023.98 1023.20 1022.39 1021.58 1020.75 1019.91 1019.07 1018.22 1017.37 1016.51 1015.63 1014.75 1013.85 1012.96 1012.07 1011.20 1010.37 1009.59 1008.87 1008.24 1007.70 1007.27 1006.94 1006.73 1006.62 1006.64 1006.76 1006.98 1007.32
1032.66 1032.35 1032.00 1031.60 1031.16 1030.68 1030.16 1029.59 1028.99 1028.35 1027.68 1026.98 1026.25 1025.51 1024.76 1024.01 1023.25 1022.49 1021.73 1020.98 1020.21 1019.44 1018.64 1017.81 1016.96 1016.07 1015.15 1014.20 1013.23 1012.27 1011.31 1010.39 1009.51 1008.70 1007.97 1007.33 1006.80 1006.39 1006.09 1005.92 1005.89 1005.99 1006.24
1032.72 1032.50 1032.25 1031.97 1031.64 1031.25 1030.80 1030.29 1029.72 1029.10 1028.44 1027.74 1027.01 1026.28 1025.55 1024.82 1024.11 1023.41 1022.72 1022.04 1021.35 1020.64 1019.90 1019.13 1018.31 1017.43 1016.51 1015.54 1014.52 1013.48 1012.44 1011.39 1010.37 1009.39 1008.48 1007.64 1006.91 1006.28 1005.79 1005.44 1005.24 1005.21 1005.35
1032.70 1032.56 1032.40 1032.22 1031.98 1031.68 1031.31 1030.86 1030.33 1029.74 1029.09 1028.40 1027.69 1026.96 1026.25 1025.55 1024.87 1024.21 1023.57 1022.94 1022.31 1021.66 1020.98 1020.25 1019.47 1018.63 1017.73 1016.76 1015.73 1014.66 1013.56 1012.43 1011.31 1010.20 1009.13 1008.13 1007.21 1006.39 1005.71 1005.18 1004.82 1004.65 1004.69
1032.62 1032.55 1032.47 1032.36 1032.20 1031.97 1031.66 1031.26 1030.77 1030.21 1029.58 1028.90 1028.20 1027.48 1026.78 1026.09 1025.43 1024.80 1024.18 1023.58 1022.97 1022.36 1021.71 1021.02 1020.28 1019.48 1018.61 1017.68 1016.68 1015.62 1014.50 1013.35 1012.17 1010.99 1009.82 1008.68 1007.62 1006.64 1005.80 1005.11 1004.60 1004.30 1004.22
1032.52 1032.49 1032.46 1032.40 1032.29 1032.10 1031.83 1031.46 1031.00 1030.46 1029.85 1029.19 1028.49 1027.79 1027.08 1026.40 1025.74 1025.10 1024.48 1023.88 1023.27 1022.66 1022.03 1021.36 1020.64 1019.88 1019.06 1018.17 1017.22 1016.21 1015.13 1014.00 1012.82 1011.62 1010.40 1009.19 1008.03 1006.95 1005.97 1005.15 1004.51 1004.09 1003.91
1032.40 1032.40 1032.38 1032.34 1032.24 1032.07 1031.80 1031.45 1031.00 1030.48 1029.88 1029.23 1028.54 1027.84 1027.14 1026.45 1025.78 1025.12 1024.48 1023.85 1023.21 1022.58 1021.92 1021.25 1020.55 1019.81 1019.02 1018.19 1017.30 1016.36 1015.35 1014.28 1013.16 1011.98 1010.77 1009.55 1008.35 1007.20 1006.14 1005.23 1004.48 1003.95 1003.67
1032.25 1032.24 1032.22 1032.17 1032.06 1031.87 1031.60 1031.24 1030.79 1030.27 1029.68 1029.04 1028.37 1027.68 1026.99 1026.30 1025.61 1024.93 1024.25 1023.58 1022.90 1022.21 1021.52 1020.81 1020.09 1019.35 1018.59 1017.80 1016.97 1016.09 1015.17 1014.18 1013.13 1012.02 1010.86 1009.67 1008.48 1007.32 1006.22 1005.25 1004.43 1003.81 1003.44
1032.07 1032.04 1031.99 1031.90 1031.75 1031.53 1031.24 1030.86 1030.40 1029.88 1029.30 1028.68 1028.03 1027.37 1026.69 1026.00 1025.31 1024.61 1023.90 1023.18 1022.45 1021.70 1020.95 1020.19 1019.42 1018.65 1017.88 1017.10 1016.31 1015.49 1014.63 1013.72 1012.76 1011.74 1010.66 1009.53 1008.39 1007.25 1006.16 1005.17 1004.31 1003.63 1003.17
1031.84 1031.78 1031.69 1031.55 1031.36 1031.09 1030.76 1030.35 1029.88 1029.36 1028.80 1028.20 1027.59 1026.95 1026.31 1025.64 1024.96 1024.25 1023.52 1022.76 1021.97 1021.16 1020.34 1019.50 1018.67 1017.84 1017.03 1016.23 1015.43 1014.64 1013.82 1012.98 1012.10 1011.16 1010.17 1009.13 1008.07 1006.99 1005.94 1004.96 1004.10 1003.38 1002.86
Thickness
5466 5467 5469 5471 5472 5474 5476 5478 5479 5481 5482 5483 5483 5484 5485 5486 5486 5485 5485 5483 5481 5480 5478 5477 5475 5473 5471 5470 5468 5468 5467 5466 5467 5469 5467 5466 5465 5465 5465 5465 5464 5464 5464
5452 5453 5455 5457 5458 5460 5462 5464 5466 5467 5469 5470 5471 5472 5474 5475 5475 5475 5474 5473 5472 5470 5468 5467 5466 5464 5462 5460 5458 5457 5456 5455 5455 5456 5456 5454 5453 5453 5453 5452 5452 5452 5452
5438 5439 5440 5442 5443 5445 5447 5449 5452 5454 5456 5457 5459 5460 5461 5463 5464 5464 5464 5463 5463 5461 5459 5457 5456 5454 5452 5450 5448 5447 5446 5445 5443 5443 5444 5442 5441 5440 5439 5439 5439 5439 5440
5424 5425 5426 5428 5429 5431 5433 5435 5438 5440 5442 5444 5446 5447 5449 5450 5451 5452 5452 5452 5452 5450 5448 5446 5445 5444 5442 5440 5438 5436 5435 5433 5431 5430 5430 5428 5427 5426 5425 5425 5426 5426 5426
5410 5411 5413 5415 5416 5417 5419 5421 5423 5426 5428 5430 5432 5433 5435 5436 5438 5438 5440 5439 5439 5438 5436 5435 5434 5432 5431 5430 5428 5426 5423 5421 5419 5418 5417 5415 5414 5412 5412 5412 5413 5413 5414
5396 5397 5399 5401 5402 5403 5404 5406 5408 5411 5413 5415 5417 5418 5420 5422 5424 5426 5426 5426 5426 5425 5424 5422 5421 5420 5419 5417 5416 5415 5413 5410 5409 5407 5406 5405 5404 5402 5400 5399 5398 5398 5401
5382 5383 5385 5386 5387 5388 5390 5392 5394 5396 5398 5400 5402 5403 5405 5407 5409 5411 5412 5412 5412 5411 5411 5410 5408 5407 5406 5404 5403 5402 5400 5398 5397 5395 5394 5394 5392 5391 5388 5387 5386 5385 5387
5368 5369 5370 5371 5372 5374 5375 5377 5378 5381 5383 5385 5387 5388 5390 5392 5395 5396 5397 5397 5397 5397 5396 5395 5394 5393 5392 5391 5390 5388 5387 5385 5383 5382 5382 5382 5379 5377 5375 5375 5373 5372 5371
5353 5354 5356 5357 5358 5359 5360 5362 5364 5365 5367 5369 5371 5373 5374 5376 5379 5380 5381 5381 5380 5380 5380 5380 5380 5379 5379 5378 5376 5374 5373 5372 5370 5369 5368 5367 5366 5364 5361 5359 5357 5356 5356
5339 5340 5341 5342 5343 5344 5346 5347 5348 5350 5352 5354 5356 5357 5358 5360 5362 5364 5364 5364 5364 5364 5364 5364 5364 5364 5364 5362 5361 5359 5358 5357 5355 5355 5354 5352 5351 5349 5348 5346 5344 5342 5341
5324 5325 5326 5327 5329 5330 5331 5332 5333 5335 5336 5338 5340 5341 5342 5344 5346 5347 5348 5347 5347 5348 5348 5348 5348 5348 5349 5348 5346 5345 5344 5342 5340 5339 5339 5338 5336 5335 5333 5331 5330 5328 5327
5309 5310 5311 5312 5314 5316 5317 5318 5318 5319 5320 5321 5323 5325 5326 5327 5329 5330 5331 5332 5332 5332 5332 5332 5332 5333 5333 5333 5332 5331 5330 5327 5326 5324 5323 5322 5321 5320 5318 5317 5315 5314 5313
5293 5295 5296 5297 5299 5301 5302 5303 5303 5304 5305 5306 5306 5308 5310 5311 5312 5314 5315 5316 5316 5316 5316 5316 5317 5317 5317 5317 5317 5316 5314 5312 5311 5309 5309 5308 5306 5305 5303 5302 5301 5300 5299
5278 5280 5281 5282 5284 5285 5286 5288 5289 5289 5290 5291 5292 5293 5294 5295 5297 5298 5299 5300 5300 5301 5300 5301 5301 5301 5301 5301 5300 5299 5297 5296 5295 5295 5294 5292 5291 5290 5288 5288 5287 5286 5286
5263 5265 5266 5267 5268 5269 5270 5272 5273 5275 5276 5277 5278 5278 5279 5281 5282 5284 5284 5285 5285 5285 5285 5285 5285 5285 5285 5284 5283 5282 5281 5280 5279 5278 5277 5276 5276 5276 5275 5273 5272 5271 5271
5248 5249 5250 5251 5252 5253 5255 5256 5259 5261 5263 5264 5265 5265 5266 5267 5268 5269 5269 5270 5270 5270 5269 5268 5268 5268 5267 5267 5266 5266 5265 5264 5264 5263 5262 5261 5261 5261 5261 5260 5259 5258 5258
5233 5234 5235 5236 5238 5239 5240 5241 5243 5245 5247 5248 5249 5250 5251 5252 5253 5253 5254 5254 5253 5253 5251 5250 5250 5250 5249 5250 5250 5250 5250 5249 5248 5248 5248 5247 5246 5246 5246 5246 5246 5245 5245
5219 5220 5220 5221 5222 5224 5224 5225 5226 5227 5228 5230 5232 5233 5235 5236 5236 5237 5237 5236 5234 5233 5233 5232 5232 5232 5232 5232 5232 5233 5234 5234 5233 5232 5232 5232 5231 5231 5232 5232 5232 5232 5232
5207 5208 5208 5208 5208 5209 5209 5210 5210 5210 5211 5212 5214 5216 5217 5218 5219 5219 5219 5217 5216 5216 5216 5215 5215 5214 5214 5214 5215 5215 5215 5217 5218 5217 5217 5217 5217 5216 5217 5218 5218 5219 5218
5195 5196 5195 5195 5195 5195 5195 5195 5195 5195 5195 5196 5197 5199 5199 5199 5199 5199 5199 5198 5198 5199 5199 5199 5199 5198 5198 5198 5198 5199 5200 5201 5202 5203 5204 5204 5203 5203 5203 5204 5205 5205 5206
5183 5183 5183 5182 5181 5181 5181 5181 5181 5180 5181 5181 5182 5183 5184 5183 5183 5182 5182 5181 5182 5182 5183 5183 5183 5183 5183 5182 5183 5184 5185 5186 5187 5188 5189 5190 5190 5191 5191 5192 5192 5193 5193
5172 5171 5170 5169 5169 5168 5168 5167 5167 5166 5166 5166 5167 5167 5169 5167 5167 5166 5166 5167 5167 5167 5168 5168 5169 5169 5169 5168 5169 5170 5171 5172 5173 5174 5176 5177 5178 5178 5179 5180 5181 5181 5181
5161 5160 5159 5157 5156 5156 5155 5154 5154 5153 5153 5153 5152 5153 5153 5152 5153 5153 5154 5154 5154 5154 5154 5154 5155 5156 5157 5157 5156 5156 5158 5160 5161 5161 5162 5164 5166 5167 5168 5169 5169 5169 5169
5150 5149 5148 5147 5145 5144 5143 5143 5142 5141 5140 5140 5140 5140 5141 5141 5141 5142 5142 5142 5143 5143 5143 5143 5143 5144 5145 5145 5145 5146 5146 5148 5149 5150 5152 5153 5154 5156 5156 5157 5158 5158 5158
5139 5138 5137 5136 5134 5133 5132 5132 5131 5130 5130 5130 5130 5130 5130 5130 5131 5131 5132 5132 5132 5132 5133 5133 5133 5134 5134 5135 5135 5136 5137 5138 5139 5140 5141 5142 5144 5145 5146 5146 5147 5147 5148
5128 5127 5126 5126 5125 5124 5123 5122 5122 5122 5121 5121 5121 5120 5120 5120 5121 5121 5121 5121 5122 5122 5123 5123 5124 5124 5125 5126 5127 5128 5128 5129 5130 5131 5131 5133 5134 5135 5136 5137 5137 5137 5138